Regional Weather Roundup
Issued by NWS Jackson, KY

Home | Current Version | Previous Version | Text Only | Print | Product List | Glossary Off
Versions: 1 2 3 4 5 6 7 8 9 10 11 12 13 14 15 16 17 18 19 20 21 22 23 24 25 26 27

000
ASUS43 KJKL 271710
RWRJKL

EAST KENTUCKY HOURLY WEATHER ROUNDUP
NATIONAL WEATHER SERVICE JACKSON KY
100 PM EDT TUE JUN 27 2017

NOTE: "FAIR" INDICATES FEW OR NO CLOUDS BELOW 12,000 FEET WITH
NO SIGNIFICANT WEATHER AND/OR OBSTRUCTIONS TO VISIBILITY.

* THESE REPORTS ARE NOT UNDER NWS QUALITY CONTROL AND MAY NOT
  REPORT WEATHER SUCH AS PRECIPITATION AND FOG.

KYZ079-080-083-085-087-088-110-112-115-119-120-271800
...EASTERN KENTUCKY...

CITY           SKY/WX    TMP DP  RH WIND       PRES   REMARKS
JACKSON        MOSUNNY   71  51  49 VRB3      30.15F
LONDON         MOSUNNY   72  50  45 VRB7      30.15F
SOMERSET*      PTSUNNY   72  50  46 CALM      30.16F
MONTICELLO*    SUNNY     73  54  51 VRB3      30.17F
WILLIAMSBURG*  MOSUNNY   72  52  49 NW6       30.15F
MIDDLESBORO*   MOSUNNY   74  53  47 N6        30.15F
HARLAN APT*    PTSUNNY   73  46  38 W7        30.16S
PIKE CO APT*   PTSUNNY   71  53  53 W8        30.15F
BIG SANDY APT* PTSUNNY   72  52  49 W10       30.15F
MOREHEAD APT*  HAZE      72  48  43 NW7       30.17F VSB 1
ASHLAND*       PTSUNNY   72  55  56 N3        30.12S
$$

KYZ035-036-041-042-044-050-067-078-099-271800
...CENTRAL KENTUCKY...

CITY           SKY/WX    TMP DP  RH WIND       PRES   REMARKS
MT STERLING*   MOSUNNY   72  50  46 CALM      30.17F
FLEMING/MASON* MOSUNNY   69  47  46 NW6       30.16F
DANVILLE*      SUNNY     73  50  43 NW8       30.16F
LEXINGTON      SUNNY     73  50  44 N6        30.16F
FRANKFORT      MOSUNNY   71  47  42 W9G17     30.15F
LOUISVILLE     MOSUNNY   73  52  47 CALM      30.15F
LEBANON*         N/A    N/A N/A N/A MISG        N/A
GLASGOW*       SUNNY     76  51  41 NW5       30.15S
BOWLING GREEN  SUNNY     77  53  43 VRB3      30.15S
$$

KYZ091>093-OHZ055-061-077-WVZ005-015-034-035-042-271800
...SOUTHERN OHIO/WEST VIRGINIA...

CITY           SKY/WX    TMP DP  RH WIND       PRES   REMARKS
COVINGTON      MOSUNNY   69  50  50 NW8       30.15F
COLUMBUS       MOSUNNY   68  50  52 VRB3      30.12F
DAYTON         PTSUNNY   65  47  52 NW8       30.15F
WILMINGTON     PTSUNNY   67  50  54 NW9       30.14F
HUNTINGTON     MOSUNNY   73  48  41 NW7       30.13S
CHARLESTON     MOSUNNY   72  46  39 W9G18     30.12F
PINEVILLE*     PTSUNNY   72  47  40 MISG      30.19S
BECKLEY        MOSUNNY   68  47  46 NW10      30.15F
BLUEFIELD      PTSUNNY   63  44  50 VRB6G21   30.17S
LOGAN CO APT*    N/A     70  52  52 N8        30.14F
$$

VAZ002-007-008-TNZ017-027-036-066-071-271800
...SOUTHWEST VIRGINIA/EAST TENNESSEE...

CITY           SKY/WX    TMP DP  RH WIND       PRES   REMARKS
WISE*          PTSUNNY   68  48  49 CALM      30.20S
JONESVILLE*      N/A     73  50  43 S5        30.17S
ABINGDON*      PTSUNNY   70  50  48 W6        30.17S
BRISTOL        PTSUNNY   72  50  45 CALM      30.15F
MORRISTOWN*    SUNNY     72  50  46 N7        30.15S
SEVIERVILLE*   SUNNY     72  54  53 NW3       30.14F
KNOXVILLE      PTSUNNY   73  52  47 N6        30.13F
LAFOLLETTE*    SUNNY     72  54  53 VRB3      30.19S
OAK RIDGE      CLOUDY    72  53  51 E5        30.16S
CROSSVILLE     MOSUNNY   70  50  49 N7        30.18F
NASHVILLE      MOSUNNY   79  54  41 VRB3      30.14F
$$

...KEY TO REMARKS...
VSB - VISIBILITY IN MILES
WCI - WIND CHILL INDEX
HX  - HEAT INDEX

$$




USA.gov is the U.S. government's official web portal to all federal, state and local government web resources and services.